www.pogodaiklimat.ru

ПОГОДА на Базе ВВС Касл, CA

  • Прогноз погоды на Базе ВВС Касл
  • Монитор погоды на Базе ВВС Касл
  • Климат на Базе ВВС Касл

АРХИВ ПОГОДЫ на Базе ВВС Касл

Время (UTC), дата Ветер
(напр.,м/с)
 
Видим.   Явления Облачность Т
(С)
Тd
(С)
f
(%)
Тe
(С)
Тes
(С)
Комфортность

P
(гПа)

Po
(гПа)
Тmin
(С)
Tmax
(С)
R
(мм)
SD
(см)
22:45 20.03   16 км    5/5 1800 м  +20.0  +8.0  46  +21  +26  комфорт    1009.6         
23:45 20.03   16 км    5/5 1800 м  +19.0  +9.0  52  +20  +22      1009.3         
00:45 21.03 С  16 км    8/8 1200 м  +16.0  +12.0  77  +15  +15      1009.3         
01:45 21.03   16 км    8/8 1080 м  +12.0  +12.0  100  +11  +11      1010.0         
01:55 21.03     16 км    8/2 60 м
[средняя] 
+12.0  +12.0  100  +11  +11      1010.0         
02:15 21.03   16 км    8/2 1650 м
[средняя] 
+12.0  +12.0  100  +11  +11      1010.0         
02:35 21.03   16 км    5/2 1650 м
[средняя] 
+12.0  +12.0  100  +11  +11      1010.0         
02:45 21.03   16 км    5/5 1500 м  +12.0  +12.0  100  +11  +11      1010.3         
02:55 21.03   16 км    2/2 1470 м  +12.0  +12.0  100  +11  +11      1010.3         
03:15 21.03   16 км    5/5 1470 м  +12.0  +12.0  100  +11  +11      1010.6         
03:35 21.03 СЗ  16 км    8/5 1650 м
[средняя] 
+12.0  +12.0  100  +11  +11      1010.6         
03:55 21.03 З  16 км    10/8 1230 м
[средняя] 
+12.0  +12.0  100  +10  +10      1010.6         
04:15 21.03 З  16 км    10/10 1290 м  +12.0  +12.0  100  +10  +10      1011.0         
04:35 21.03 З  16 км    10/10 1290 м  +12.0  +12.0  100  +10  +10      1011.3         
04:55 21.03 СЗ  16 км    10/8 1290 м
[средняя] 
+12.0  +12.0  100  +10  +10      1011.3         
05:15 21.03 С  16 км    10/8 1200 м
[средняя] 
+12.0  +12.0  100  +10  +10      1011.3         
05:35 21.03 С  16 км    10/0 2250 м
[средняя] 
+11.0  +11.0  100  +9  +9      1011.3         
05:55 21.03 С  16 км    5/0 2250 м
[средняя] 
+10.0  +10.0  100  +8  +8      1011.0         
06:15 21.03 С  16 км    ясно  +10.0  +10.0  100  +8  +8      1011.3         
06:35 21.03 С  16 км    ясно  +9.0  +9.0  100  +7  +7      1011.3         
06:55 21.03   16 км    2/0 2250 м
[средняя] 
+9.0  +9.0  100  +8  +8      1011.3         
07:15 21.03   16 км    5/0 2250 м
[средняя] 
+8.0  +8.0  100  +7  +7      1011.3         
07:35 21.03   16 км    8/0 2250 м
[средняя] 
+9.0  +9.0  100  +8  +8      1011.6         
07:55 21.03 СЗ  16 км    10/2 1110 м
[средняя] 
+9.0  +9.0  100  +6  +6      1011.6         
08:15 21.03 СЗ  16 км    10/0 2250 м
[средняя] 
+9.0  +9.0  100  +7  +7      1011.6         
08:35 21.03 З  16 км    10/8 1200 м
[средняя] 
+9.0  +9.0  100  +7  +7      1012.0         
08:55 21.03 З  16 км    10/10 1200 м  +10.0  +10.0  100  +8  +8      1011.6         
09:15 21.03 С  16 км    8/8 1260 м  +9.0  +9.0  100  +6  +6      1011.3         
09:35 21.03 СЗ  16 км    2/2 1320 м  +7.0  +7.0  100  +4  +4      1011.3         
09:55 21.03 СЗ  16 км    ясно  +8.0  +8.0  100  +5  +5      1011.3         
10:15 21.03 СЗ  16 км    8/8 1320 м  +8.0  +8.0  100  +5  +5      1011.3         
10:35 21.03 С  16 км    10/10 1320 м  +8.0  +8.0  100  +6  +6      1011.0         
10:55 21.03 С  16 км    8/8 1380 м
[средняя] 
+8.0  +8.0  100  +5  +5      1011.0         
11:15 21.03 С  16 км    2/0 2400 м
[средняя] 
+8.0  +8.0  100  +5  +5      1011.0         
11:35 21.03 СЗ  16 км    ясно  +6.0  +6.0  100  +2  +2      1011.3         
11:55 21.03 СЗ  16 км    ясно  +7.0  +7.0  100  +4  +4      1011.3         
12:15 21.03 С  16 км    ясно  +7.0  +7.0  100  +4  +4      1011.6         
12:52 21.03 СЗ  16 км    ясно  +6.0  +6.0  100  +2  +2      1011.6         
13:52 21.03 СЗ  16 км    ясно  +7.0  +7.0  100  +3  +3      1012.0         
14:52 21.03 СЗ  16 км    ясно  +11.0  +11.0  100  +9  +10      1012.3         
16:45 21.03 СЗ  16 км    ясно  +14.0  +12.0  88  +12  +16      1013.3         
17:45 21.03 СЗ  16 км    ясно  +16.0  +9.0  63  +15  +22      1012.6         
18:45 21.03 СЗ  16 км    ясно  +18.0  +8.0  52  +18  +28      1012.3         
19:50 21.03 СЗ  16 км    ясно  +19.0  +8.0  49  +20  +30      1011.6         
20:45 21.03 СЗ  16 км    5/5 1650 м  +19.0  +7.0  46  +19  +23      1011.6         
21:45 21.03 СЗ  16 км    5/5 1650 м  +21.0  +5.0  35  +22  +27  комфорт    1011.3         
22:45 21.03   16 км    5/5 1650 м  +20.0  +4.0  35  +20  +25      1011.3         
23:45 21.03   16 км    5/5 1650 м  +19.0  +4.0  37  +19  +22      1011.6         

 

Местоположение метеостанции Castle Air Force Base: широта 37.3667 долгота -120.5667 высота над уровнем моря 57 м.

В архиве по умолчанию представлена погода на Базе ВВС Касл за последние 1-2 суток. Обновление информации о фактической погоде в базе происходит ежечасно! Архивные данные за месяц целиком и за предыдущие месяцы Вы можете получить, выбрав интересующий диапазон дат из раскрывающегося списка и нажав кнопку "Ввод!".

Внимание! Архив погоды МЕТАР в базе сайта хранится не более 60 дней. Нет смысла пытаться выбрать более раннюю дату.

Внимание! Время в таблицах - всемирное. Для получения местного времени необходимо прибавить поправку, которая на Базе ВВС Касл равна -8 ч.

Ветер - указаны скорость ветра в м/с и направление, откуда дует ветер: С - северный, СВ - северо-восточный, В - восточный, ЮВ - юго-восточный, Ю - южный, ЮЗ - юго-западный, З - западный, СЗ - северо-западный.
Видимость - горизонтальная дальность видимости в метрах или километрах. При видимости от 1 до 10 км при отсутствии осадков обычно наблюдается дымка, при ухудшении видимости до 1 км и менее - туман. В сухую погоду видимость может ухудшаться дымом, пылью или мглою.
Атмосферные явления - указаны явления, наблюдавшиеся в указанный момент времени.
Облачность - указаны через наклонную черту верхняя и нижняя облачность в баллах и высота нижней границы облаков в метрах. Внимание: облачность, как и прочие метеорологические величины в США измеряются автоматическими метеостанциями. Указанные значения в баллах носят условный характер и показывают процент времени, в течение которого, в среднем, лазерный луч высотомера отражался от облаков обратно.
T - Температура воздуха - температура, измеренная на высоте 2 м над землей.
Td - Температура точки росы - температура, при понижении до которой содержащийся в воздухе водяной пар достигнет насыщения.
f - Относительная влажность воздуха - влажноcть воздуха, измеренная на высоте 2 м над землей.
Te - Эффективная температура - температура, которую ощущает одетый по сезону человек в тени. Характеристика душности погоды. При расчете учитывается влияние влажности воздуха и скорости ветра на теплоощущения человека.
Tes - Эффективная температура на солнце - температура, которую ощущает человек, с поправкой на солнечный нагрев. Характеристика знойности погоды. Зависит от высоты солнца над горизонтом, облачности и скорости ветра. Ночью, в пасмурную погоду, а также при ветре 12 м/с и более поправка равна нулю.
P - Атмосферное давление - приведенное к уровню моря атмосферное давление.
Po - Атмосферное давление - измеренное на уровне метеостанции атмосферное давление.
Tmin - Минимальная температура - минимум температуры воздуха на высоте 2 м над землей.
Tmax - Максимальная температура - максимум температуры воздуха на высоте 2 м над землей.
R - Количество осадков - Количество выпавших осадков за 3 или 6 часов, мм.
SD - Снежный покров - Высота снежного покрова, см.